Location: Newark
(5.5500°N, 0.2500°W)
Time: 20:47:04
(UTC+00:00)

LightSail 2 - Pass Details

Date: 19 September 2019
Orbit: 707 x 722 km, 24.0° (Epoch: 18 October)

Event Time Altitude Azimuth Distance (km) Brightness Sun altitude
Exits shadow 04:51:08 16° 309° (NW) 1,785 6.8 -15.7°
Maximum altitude 04:53:21 21° 342° (NNW) 1,559 6.8 -15.2°
Drops below altitude 10° 04:57:08 10° 30° (NNE) 2,158 8.1 -14.2°
Sets 05:00:07 0° 47° (NE) 3,078 9.3 -13.5°
